Canadian, TX

10:29 AM CDT on September 28, 2016 (GMT -0500)
Hemphill County

Weather History for KHHF - October, 2012

Change the Weather History Date:

Thursday, October 4, 2012

  Actual Average (KPPA) Record (KPPA)
Temperature  
Mean Temperature 60 °F -  
Max Temperature 68 °F 79 °F 94 °F (1967)
Min Temperature 51 °F 50 °F 41 °F (1968)
Degree Days  
Heating Degree Days 6    
Growing Degree Days 10 (Base 50)    
Moisture  
Dew Point 41 °F    
Average Humidity 54    
Maximum Humidity 88    
Minimum Humidity 39    
Precipitation  
Precipitation 0.00 in - - ()
Sea Level Pressure  
Sea Level Pressure 30.16 in    
Wind  
Wind Speed 12 mph (NE)    
Max Wind Speed 24 mph    
Max Gust Speed 39 mph    
Visibility 10 miles    
Events      
Averages and records for this station are not official NWS values.
T = Trace of Precipitation, MM = Missing Value Source: NWS Daily Summary

Daily Weather History Graph

Daily Weather History Graph

Search for Another Location

Airport or City:

Trip Planner

Search our weather history database for the weather conditions in past years. The results will help you decide how hot, cold, wet, or windy it might be!

Date:

Astronomy

Oct. 04, 2012 Rise Set
Actual Time 7:39 AM CDT 7:20 PM CDT
Civil Twilight 7:13 AM CDT 7:45 PM CDT
Nautical Twilight 6:44 AM CDT 8:15 PM CDT
Astronomical Twilight 6:14 AM CDT 8:45 PM CDT
Moon 10:06 PM CDT (10/4) 11:49 AM CDT (10/4)
Length of Visible Light 12h 31m
Length of Day
11h 40m
Waning Gibbous, 82% of the Moon is Illuminated
Oct 4
Waning Gibbous
Oct 8
Last Quarter
Oct 15
New
Oct 21
First Quarter
Oct 29
Full

Hourly Weather History & Observations

Time (CDT) Temp. Dew Point Humidity Pressure Visibility Wind Dir Wind Speed Gust Speed Precip Events Conditions
12:15 AM 68.0 °F 53.6 °F 60% 29.92 in 10.0 mi South 12.7 mph 19.6 mph N/A   Clear
12:35 AM 68.0 °F 53.6 °F 60% 29.92 in 10.0 mi South 10.4 mph 16.1 mph N/A   Clear
12:55 AM 66.2 °F 53.6 °F 64% 29.92 in 10.0 mi SSE 9.2 mph - N/A   Clear
1:15 AM 66.2 °F 53.6 °F 64% 29.92 in 10.0 mi SSE 8.1 mph 16.1 mph N/A   Clear
1:35 AM 64.4 °F 53.6 °F 68% 29.93 in 10.0 mi SSE 6.9 mph - N/A   Clear
1:55 AM 64.4 °F 53.6 °F 68% 29.94 in 10.0 mi SSE 9.2 mph - N/A   Clear
2:15 AM 64.4 °F 53.6 °F 68% 29.93 in 10.0 mi SSE 13.8 mph - N/A   Clear
2:35 AM 64.4 °F 53.6 °F 68% 29.94 in 10.0 mi SSE 12.7 mph - N/A   Clear
2:55 AM 62.6 °F 53.6 °F 72% 29.94 in 10.0 mi SSE 8.1 mph - N/A   Clear
3:15 AM 60.8 °F 53.6 °F 77% 29.95 in 10.0 mi NNE 6.9 mph - N/A   Clear
3:35 AM 60.8 °F 53.6 °F 77% 30.02 in 10.0 mi NNW 8.1 mph 16.1 mph N/A   Scattered Clouds
3:55 AM 60.8 °F 53.6 °F 77% 30.04 in 10.0 mi North 5.8 mph - N/A   Scattered Clouds
4:15 AM 60.8 °F 53.6 °F 77% 30.04 in 10.0 mi Calm Calm - N/A   Clear
4:35 AM 59.0 °F 53.6 °F 82% 30.03 in 10.0 mi East 4.6 mph - N/A   Clear
4:55 AM 60.8 °F 53.6 °F 77% 30.02 in 10.0 mi ESE 6.9 mph - N/A   Clear
5:15 AM 57.2 °F 53.6 °F 88% 30.07 in 10.0 mi NNW 15.0 mph 23.0 mph N/A   Clear
5:35 AM 59.0 °F 44.6 °F 59% 30.10 in 10.0 mi North 20.7 mph 28.8 mph N/A   Scattered Clouds
5:55 AM 55.4 °F 41.0 °F 58% 30.13 in 10.0 mi North 13.8 mph 29.9 mph N/A   Scattered Clouds
6:15 AM 53.6 °F 41.0 °F 62% 30.15 in 10.0 mi North 19.6 mph 33.4 mph N/A   Scattered Clouds
6:35 AM 53.6 °F 41.0 °F 62% 30.16 in 10.0 mi North 19.6 mph 28.8 mph N/A   Overcast
6:55 AM 53.6 °F 41.0 °F 62% 30.18 in 10.0 mi North 20.7 mph 39.1 mph N/A   Overcast
7:15 AM 53.6 °F 41.0 °F 62% 30.19 in 10.0 mi North 15.0 mph 24.2 mph N/A   Overcast
7:35 AM 51.8 °F 39.2 °F 62% 30.21 in 10.0 mi North 24.2 mph 35.7 mph N/A   Overcast
7:55 AM 51.8 °F 39.2 °F 62% 30.22 in 10.0 mi North 12.7 mph 25.3 mph N/A   Overcast
8:15 AM 53.6 °F 39.2 °F 58% 30.22 in 10.0 mi North 19.6 mph 25.3 mph N/A   Overcast
8:35 AM 51.8 °F 37.4 °F 58% 30.23 in 10.0 mi North 18.4 mph 29.9 mph N/A   Overcast
8:55 AM 53.6 °F 37.4 °F 54% 30.24 in 10.0 mi NNE 16.1 mph 31.1 mph N/A   Overcast
9:15 AM 51.8 °F 37.4 °F 58% 30.25 in 10.0 mi NNE 23.0 mph 29.9 mph N/A   Overcast
9:35 AM 51.8 °F 35.6 °F 54% 30.26 in 10.0 mi NNE 20.7 mph 27.6 mph N/A   Overcast
9:55 AM 51.8 °F 35.6 °F 54% 30.26 in 10.0 mi NNE 15.0 mph 33.4 mph N/A   Overcast
10:15 AM 51.8 °F 35.6 °F 54% 30.27 in 10.0 mi North 19.6 mph 26.5 mph N/A   Overcast
10:35 AM 51.8 °F 33.8 °F 50% 30.27 in 10.0 mi NNE 17.3 mph 28.8 mph N/A   Overcast
10:55 AM 51.8 °F 33.8 °F 50% 30.28 in 10.0 mi North 16.1 mph 25.3 mph N/A   Overcast
11:15 AM 51.8 °F 35.6 °F 54% 30.28 in 10.0 mi North 15.0 mph 23.0 mph N/A   Overcast
11:35 AM 53.6 °F 35.6 °F 51% 30.28 in 10.0 mi NNE 13.8 mph 24.2 mph N/A   Overcast
11:55 AM 53.6 °F 35.6 °F 51% 30.28 in 10.0 mi North 13.8 mph 20.7 mph N/A   Overcast
12:15 PM 53.6 °F 35.6 °F 51% 30.28 in 10.0 mi North 16.1 mph 21.9 mph N/A   Overcast
12:35 PM 55.4 °F 35.6 °F 47% 30.28 in 10.0 mi NNE 16.1 mph 23.0 mph N/A   Overcast
12:55 PM 55.4 °F 35.6 °F 47% 30.27 in 10.0 mi NNE 18.4 mph 21.9 mph N/A   Overcast
1:35 PM 55.4 °F 35.6 °F 47% 30.26 in 10.0 mi NNE 12.7 mph 19.6 mph N/A   Overcast
1:55 PM 57.2 °F 35.6 °F 44% 30.26 in 10.0 mi NNE 11.5 mph 17.3 mph N/A   Overcast
2:15 PM 59.0 °F 35.6 °F 42% 30.25 in 10.0 mi NNE 10.4 mph 20.7 mph N/A   Overcast
2:35 PM 59.0 °F 35.6 °F 42% 30.24 in 10.0 mi NNE 10.4 mph 18.4 mph N/A   Overcast
2:55 PM 59.0 °F 35.6 °F 42% 30.23 in 10.0 mi North 11.5 mph 16.1 mph N/A   Overcast
3:15 PM 60.8 °F 35.6 °F 39% 30.21 in 10.0 mi NE 13.8 mph - N/A   Overcast
3:35 PM 60.8 °F 35.6 °F 39% 30.21 in 10.0 mi NNE 15.0 mph - N/A   Overcast
3:55 PM 60.8 °F 35.6 °F 39% 30.21 in 10.0 mi NE 11.5 mph - N/A   Overcast
4:15 PM 60.8 °F 37.4 °F 42% 30.21 in 10.0 mi NE 9.2 mph - N/A   Overcast
4:35 PM 62.6 °F 37.4 °F 39% 30.20 in 10.0 mi NE 11.5 mph - N/A   Overcast
4:55 PM 62.6 °F 37.4 °F 39% 30.19 in 10.0 mi ENE 10.4 mph 16.1 mph N/A   Overcast
5:15 PM 62.6 °F 37.4 °F 39% 30.19 in 10.0 mi ENE 10.4 mph - N/A   Overcast
5:55 PM 60.8 °F 37.4 °F 42% 30.18 in 10.0 mi East 9.2 mph - N/A   Overcast
6:15 PM 60.8 °F 37.4 °F 42% 30.18 in 10.0 mi ENE 8.1 mph - N/A   Overcast
6:35 PM 60.8 °F 37.4 °F 42% 30.18 in 10.0 mi ENE 8.1 mph - N/A   Overcast
6:55 PM 60.8 °F 37.4 °F 42% 30.19 in 10.0 mi NE 9.2 mph - N/A   Overcast
7:15 PM 60.8 °F 37.4 °F 42% 30.19 in 10.0 mi ENE 6.9 mph - N/A   Overcast
7:35 PM 60.8 °F 37.4 °F 42% 30.19 in 10.0 mi East 6.9 mph - N/A   Overcast
7:55 PM 60.8 °F 37.4 °F 42% 30.19 in 10.0 mi ENE 9.2 mph - N/A   Overcast
8:15 PM 60.8 °F 37.4 °F 42% 30.19 in 10.0 mi East 6.9 mph - N/A   Overcast
8:35 PM 59.0 °F 37.4 °F 45% 30.19 in 10.0 mi ENE 5.8 mph - N/A   Overcast
8:55 PM 59.0 °F 37.4 °F 45% 30.20 in 10.0 mi ENE 5.8 mph - N/A   Overcast
9:15 PM 59.0 °F 37.4 °F 45% 30.20 in 10.0 mi East 4.6 mph - N/A   Overcast
9:35 PM 59.0 °F 39.2 °F 48% 30.20 in 10.0 mi East 6.9 mph - N/A   Overcast
9:55 PM 59.0 °F 39.2 °F 48% 30.20 in 10.0 mi ESE 5.8 mph - N/A   Overcast
10:15 PM 59.0 °F 39.2 °F 48% 30.20 in 10.0 mi East 6.9 mph - N/A   Overcast
10:35 PM 57.2 °F 39.2 °F 51% 30.20 in 10.0 mi East 5.8 mph - N/A   Overcast
10:55 PM 57.2 °F 41.0 °F 55% 30.21 in 10.0 mi East 4.6 mph - N/A   Overcast
11:15 PM 57.2 °F 41.0 °F 55% 30.22 in 10.0 mi East 3.5 mph - N/A   Overcast
11:35 PM 57.2 °F 41.0 °F 55% 30.22 in 10.0 mi East 4.6 mph - N/A   Overcast
11:55 PM 55.4 °F 39.2 °F 54% 30.22 in 10.0 mi ESE 5.8 mph - N/A   Overcast